Find Starlink 3850

NORAD ID: 52342 Int'l Des: 2022-045 Owner: SPXS Country: US Constellation: starlink operational
LEOCIRCULAR

当前视图

正在加载3D地球...

About Starlink 3850

Starlink 3850 (NORAD 52342) is a starlink constellation satellite (v1.5) launched Apr 29, 2022 by SPXS of US. It operates in LEO, CIRCULAR orbit with a mass of 297.00 kg.

即将过境

Passes for default location (London). Set your location on the main map for personalized predictions.

高度历史

Loading altitude history...

两行轨道根数

1 52342U 22045M 26209.16668980 .00078787 00000-0 44344-2 0 9990
2 52342 53.1591 288.2446 0000931 60.0112 20.9706 15.12558657 5834
Epoch: Jul 28, 2026 • Age: 14 hours

当前状态

高度 530.9 km
远地点 / 近地点 N/A
速度 7.60 km/s
星下点 -11.00°S, 63.06°E
发射日期 Apr 29, 2022
运行时间 4.2 years
类型 internet

技术详情

分类 Payload
质量 297.00 kg
干质量 275.00 kg
总质量 297.00 kg
长度 0.20 m
直径 2.80 m
跨度 9.00 m
形状 Box + pan
制造商 SPXS
平台类型 Starlink
阶段状态 In Orbit
所有者/国家 SPXS/US

Most Searched